PLATFORM,ARGOS_ID,DATE (YYYY/MM/DD HH:MI:SS),LATITUDE (degree_north),LONGITUDE (degree_east),TEMP LEVEL0 (degree_Celsius),EWCT LEVEL1 (meter/second),NSCT LEVEL1 (meter/second),QC,SVP_RCBN_Number,SVP_GNRL_ImmPercent,SVP_GNRL_BattVolt
61869,80039,2008/11/18 18:00:10,42.9390,6.4986,18.28,,,00111199,1,17,12
61869,80039,2008/11/18 18:30:21,42.9350,6.4862,18.28,-0.557392,-0.245599,00111100,1,17,12
61869,80039,2008/11/18 20:30:16,42.9241,6.4355,18.28,-0.573703,-0.168454,00111100,1,17,12
61869,80039,2008/11/18 21:00:12,42.9217,6.4225,18.28,-0.589378,-0.14859,00111100,1,19,12
61869,80039,2008/11/18 21:30:21,42.9200,6.4095,18.28,-0.585162,-0.104495,00111100,1,17,12
61869,80039,2008/11/18 22:00:21,42.9181,6.3961,18.28,-0.6062,-0.117372,00111100,1,14,12
61869,80039,2008/11/18 22:02:29,42.7133,6.3833,18.28,,,00144199,1,14,12
61869,80039,2008/11/18 22:30:30,42.9421,6.3823,18.28,-0.048513,15.1347,00144100,1,12,12
61869,80039,2008/11/18 23:00:16,42.9151,6.3683,18.28,-0.638209,-1.681,00144100,1,14,12
61869,80039,2008/11/18 23:31:34,42.9139,6.3532,18.28,-0.654783,-0.071051,00111100,1,15,12
61869,80039,2008/11/19 00:00:22,42.9128,6.3388,18.28,-0.678645,-0.070784,00111100,1,17,12
61869,80039,2008/11/19 00:30:24,42.9119,6.3238,18.28,-0.677903,-0.055536,00111100,3,17,12
61869,80039,2008/11/19 01:00:22,42.9113,6.3089,18.28,-0.67489,-0.037106,00111100,3,15,12
61869,80039,2008/11/19 01:31:10,42.9095,6.2936,18.28,-0.674271,-0.108307,00111100,1,19,12
61869,80039,2008/11/19 02:02:03,42.9101,6.2774,18.28,-0.712014,0.036005,00111100,1,15,12
61869,80039,2008/11/19 02:30:16,42.9097,6.2627,18.28,-0.707145,-0.026272,00111100,4,20,12
61869,80039,2008/11/19 03:00:22,42.9095,6.2465,18.28,-0.730546,-0.012314,00111100,4,22,12
61869,80039,2008/11/19 03:30:32,42.9097,6.2301,18.28,-0.737931,0.012287,00111100,1,17,12
61869,80039,2008/11/19 04:00:18,42.9099,6.2139,18.28,-0.738725,0.012452,00111100,3,19,12
61869,80039,2008/11/19 04:31:04,42.9104,6.1967,18.28,-0.758828,0.030118,00111100,3,17,12
61869,80039,2008/11/19 05:00:10,42.9110,6.1805,18.28,-0.755637,0.038211,00111100,3,19,12
61869,80039,2008/11/19 05:30:06,42.9116,6.1640,18.28,-0.748197,0.037148,00111100,3,15,12
61869,80039,2008/11/19 06:00:22,42.9121,6.1471,18.28,-0.757889,0.030615,00111100,1,14,12
61869,80039,2008/11/19 06:30:16,42.9129,6.1305,18.28,-0.753556,0.049585,00111100,1,15,12
61869,80039,2008/11/19 07:00:16,42.9138,6.1136,18.28,-0.764607,0.055597,00111100,1,15,12
61869,80039,2008/11/19 07:31:34,42.9150,6.0965,18.28,-0.74151,0.071051,00111100,1,14,12
61869,80039,2008/11/19 08:00:16,42.9161,6.0805,18.28,-0.75665,0.07103,00111100,3,15,12
61869,80039,2008/11/19 08:30:16,42.9173,6.0642,18.28,-0.737421,0.07413,00111100,3,11,12
61869,80039,2008/11/19 09:00:16,42.9180,6.0474,18.28,-0.76003,0.043242,00111100,3,12,12
61869,80039,2008/11/19 09:30:14,42.9212,6.0313,18.28,-0.729149,0.1979,00111100,4,11,12
61869,80039,2008/11/19 10:00:17,42.9221,6.0153,18.28,-0.722586,0.055505,00111100,4,9,12
61869,80039,2008/11/19 10:31:34,42.9224,5.9973,18.28,-0.780853,0.017772,00111100,3,9,12
61869,80039,2008/11/19 12:30:21,42.9260,5.9329,18.28,-0.735744,0.056167,00111100,3,6,12
61869,80039,2008/11/19 13:00:10,42.9271,5.9171,18.28,-0.719081,0.06837,00111100,3,3,12
61869,80039,2008/11/19 13:30:40,42.9280,5.9012,18.28,-0.707408,0.054686,00111100,1,1,12
61869,80039,2008/11/19 14:00:16,42.9288,5.8860,18.28,-0.696817,0.050088,00111100,1,3,12
61869,80039,2008/11/19 14:30:16,42.9294,5.8708,18.28,-0.687518,0.037065,00111100,4,4,12
61869,80039,2008/11/19 15:00:16,42.9294,5.8558,18.28,-0.678468,0,00111100,4,3,12
61869,80039,2008/11/19 15:30:12,42.9299,5.8412,18.28,-0.661844,0.030956,00111100,1,6,12
61869,80039,2008/11/19 16:00:17,42.9306,5.8263,18.28,-0.672069,0.043123,00111100,1,4,12
61869,80039,2008/11/19 16:31:03,42.9303,5.8106,18.28,-0.692423,-0.018071,00111100,1,6,12
61869,80039,2008/11/19 17:00:10,42.9301,5.7957,18.28,-0.694382,-0.01273,00111100,1,4,12
61869,80039,2008/11/19 17:30:10,42.9301,5.7805,18.28,-0.687507,0,00111100,1,6,12
61869,80039,2008/11/19 18:00:28,42.9298,5.7649,18.2,-0.698615,-0.018349,00111100,1,6,12
61869,80039,2008/11/19 18:30:16,42.9301,5.7495,18.2,-0.701229,0.018657,00111100,1,4,12
61869,80039,2008/11/19 19:00:16,42.9302,5.7344,18.2,-0.682983,0.006177,00111100,1,7,11.9
61869,80039,2008/11/19 19:30:40,42.9304,5.7183,18.2,-0.71863,0.012192,00111100,1,6,11.9
61869,80039,2008/11/19 20:00:16,42.9303,5.7023,18.2,-0.733468,-0.006261,00111100,1,4,12
61869,80039,2008/11/19 20:30:22,42.9311,5.6859,18.2,-0.739312,0.049256,00111100,1,9,12
61869,80039,2008/11/19 21:00:16,42.9317,5.6698,18.2,-0.730635,0.037189,00111100,1,6,12
61869,80039,2008/11/19 21:30:16,42.9320,5.6540,18.2,-0.714625,0.018532,00111100,1,7,12
61869,80039,2008/11/19 22:00:16,42.9336,5.6382,18.2,-0.714614,0.09884,00111100,1,4,12
61869,80039,2008/11/19 22:30:40,42.9348,5.6218,18.2,-0.731975,0.073155,00111100,3,6,12
61869,80039,2008/11/19 23:00:23,42.9362,5.6066,18.2,-0.694001,0.08731,00111100,3,6,12
61869,80039,2008/11/19 23:30:07,42.9377,5.5914,18.2,-0.693596,0.093493,00111100,1,9,12
61869,80039,2008/11/20 00:00:22,42.9393,5.5758,18.2,-0.699672,0.098023,00111100,1,4,12
61869,80039,2008/11/20 00:30:32,42.9411,5.5609,18.2,-0.670104,0.110581,00111100,1,9,12
61869,80039,2008/11/20 01:00:39,42.9429,5.5465,18.2,-0.648674,0.110764,00111100,1,7,12
61869,80039,2008/11/20 01:30:15,42.9446,5.5326,18.2,-0.637062,0.106437,00111100,1,9,12
61869,80039,2008/11/20 02:00:15,42.9459,5.5187,18.2,-0.628552,0.080307,00111100,1,9,12
61869,80039,2008/11/20 02:30:11,42.9474,5.5052,18.2,-0.61181,0.092869,00111100,1,11,12
61869,80039,2008/11/20 03:00:27,42.9491,5.4918,18.2,-0.600574,0.104092,00111100,1,11,12
61869,80039,2008/11/20 03:30:39,42.9508,5.4777,18.12,-0.633325,0.104322,00111100,1,9,12
61869,80039,2008/11/20 04:00:27,42.9525,5.4650,18.12,-0.578083,0.105722,00111100,1,9,12
61869,80039,2008/11/20 04:30:15,42.9544,5.4517,18.12,-0.605376,0.11816,00111100,1,11,12
61869,80039,2008/11/20 05:00:21,42.9567,5.4383,18.12,-0.603828,0.14161,00111100,1,12,12
61869,80039,2008/11/20 05:30:16,42.9588,5.4253,18.12,-0.589372,0.130089,00111100,1,11,12
61869,80039,2008/11/20 06:00:14,42.9609,5.4123,18.12,-0.588369,0.129872,00111100,1,12,12
61869,80039,2008/11/20 06:31:38,42.9636,5.3990,18.12,-0.574447,0.159356,00111100,1,12,12
61869,80039,2008/11/20 07:00:15,42.9657,5.3866,18.12,-0.587643,0.135998,00111100,1,14,12
61869,80039,2008/11/20 07:30:00,42.9684,5.3740,18.12,-0.573895,0.170063,00111100,1,12,11.8
61869,80039,2008/11/20 08:00:15,42.9707,5.3614,18.12,-0.565283,0.13907,00111100,1,14,11.8
61869,80039,2008/11/20 08:30:15,42.9731,5.3489,18.12,-0.565,0.14826,00111100,1,14,11.8
61869,80039,2008/11/20 09:00:14,42.9757,5.3362,18.12,-0.574336,0.160704,00111100,1,12,12
61869,80039,2008/11/20 09:31:39,42.9785,5.3226,18.12,-0.586951,0.16517,00111100,1,14,12
61869,80039,2008/11/20 10:00:14,42.9813,5.3109,18.12,-0.554979,0.181543,00111100,3,17,12
61869,80039,2008/11/20 10:31:03,42.9842,5.2984,18.12,-0.54993,0.1744,00111100,3,11,12
61869,80039,2008/11/20 11:00:15,42.9867,5.2861,18.12,-0.571066,0.158669,00111100,3,17,12
61869,80039,2008/11/20 11:30:10,42.9902,5.2739,18.12,-0.552827,0.216815,00111100,3,17,12
61869,80039,2008/11/20 12:00:16,42.9934,5.2625,18.12,-0.513402,0.197023,00111100,1,20,12
61869,80039,2008/11/20 12:30:21,42.9967,5.2512,18.12,-0.509153,0.203293,00111100,1,19,12
61869,80039,2008/11/20 13:01:27,43.0001,5.2399,18.12,-0.492482,0.202606,00111100,1,17,12
61869,80039,2008/11/20 13:30:15,43.0034,5.2290,18.12,-0.512959,0.212351,00111100,1,17,12
61869,80039,2008/11/20 14:00:15,43.0068,5.2186,18.04,-0.469826,0.210035,00111100,1,19,12
61869,80039,2008/11/20 14:30:14,43.0103,5.2080,18.04,-0.479101,0.216333,00111100,1,20,12
61869,80039,2008/11/20 15:00:27,43.0140,5.1977,18.04,-0.461919,0.226928,00111100,1,19,12
61869,80039,2008/11/20 15:31:33,43.0178,5.1871,18.04,-0.461843,0.226442,00111100,1,20,12
61869,80039,2008/11/20 16:00:15,43.0215,5.1774,18.04,-0.457944,0.238921,00111100,1,15,12
61869,80039,2008/11/20 16:30:15,43.0252,5.1677,18.04,-0.438073,0.228567,00111100,1,17,12
61869,80039,2008/11/20 17:00:33,43.0293,5.1584,18.04,-0.415823,0.25077,00111100,1,12,12
61869,80039,2008/11/20 17:31:39,43.0329,5.1489,18.04,-0.413813,0.214524,00111100,1,14,12
61869,80039,2008/11/20 18:00:39,43.0370,5.1398,18.04,-0.425067,0.262011,00111100,1,20,12
61869,80039,2008/11/20 18:30:41,43.0409,5.1310,18.04,-0.396885,0.240655,00111100,1,20,12
61869,80039,2008/11/20 19:00:37,43.0444,5.1226,18.04,-0.380088,0.216694,00111100,1,17,12
61869,80039,2008/11/20 19:30:17,43.0485,5.1145,18.04,-0.369785,0.256123,00111100,1,20,12
61869,80039,2008/11/20 20:00:16,43.0522,5.1066,18.04,-0.356822,0.228694,00111100,1,19,12
61869,80039,2008/11/20 21:00:22,43.0589,5.0918,18.04,-0.333469,0.206602,00111100,1,20,12
61869,80039,2008/11/20 21:31:07,43.0627,5.0846,18.04,-0.317043,0.229019,00111100,1,23,12
61869,80039,2008/11/20 22:00:17,43.0665,5.0779,18.04,-0.311023,0.241452,00111100,1,25,12
61869,80039,2008/11/20 22:30:58,43.0700,5.0714,18.04,-0.286807,0.211397,00111100,1,25,12
61869,80039,2008/11/20 23:00:16,43.0730,5.0652,17.96,-0.28647,0.189752,00111100,1,22,12
61869,80039,2008/11/20 23:30:14,43.0771,5.0593,17.96,-0.266528,0.253559,00111100,1,22,12
61869,80039,2008/11/21 00:00:21,43.0808,5.0527,17.96,-0.296647,0.227682,00111100,3,22,12
61869,80039,2008/11/21 00:30:15,43.0844,5.0471,17.96,-0.253509,0.223134,00111100,3,26,12
61869,80039,2008/11/21 01:01:09,43.0880,5.0416,17.96,-0.24091,0.215912,00111100,3,23,11.9
61869,80039,2008/11/21 01:31:30,43.0916,5.0367,17.96,-0.218506,0.219825,00111100,3,25,11.9
61869,80039,2008/11/21 02:00:18,43.0948,5.0331,17.96,-0.169165,0.205917,00111100,4,26,12
61869,80039,2008/11/21 02:30:12,43.0980,5.0287,17.96,-0.199141,0.198341,00111100,4,23,12
61869,80039,2008/11/21 03:00:39,43.1015,5.0244,17.96,-0.191089,0.213017,00111100,3,23,12
61869,80039,2008/11/21 03:31:33,43.1048,5.0200,17.96,-0.192675,0.19792,00111100,1,22,12
61869,80039,2008/11/21 04:00:13,43.1077,5.0171,17.96,-0.136877,0.18748,00111100,1,20,12
61869,80039,2008/11/21 04:30:21,43.1109,5.0141,17.96,-0.134698,0.196805,00111100,1,23,12
61869,80039,2008/11/21 05:00:14,43.1135,5.0109,17.96,-0.144873,0.161242,00111100,1,20,12
61869,80039,2008/11/21 05:31:33,43.1164,5.0080,17.88,-0.125276,0.171615,00111100,1,20,12
61869,80039,2008/11/21 06:30:13,43.1227,5.0030,17.88,-0.11529,0.199014,00111100,1,22,12
61869,80039,2008/11/21 07:02:33,43.1251,5.0008,17.88,-0.092036,0.137561,00111100,3,20,12
61869,80039,2008/11/21 07:33:09,43.1284,4.9991,17.88,-0.075143,0.19986,00111100,3,20,12
61869,80039,2008/11/21 08:00:15,43.1305,4.9983,17.88,-0.039927,0.14361,00111100,1,26,11.9
61869,80039,2008/11/21 08:30:15,43.1331,4.9980,17.88,-0.013525,0.160615,00111100,1,22,11.9
61869,80039,2008/11/21 09:00:28,43.1354,4.9979,17.88,-0.004476,0.141064,00111100,1,22,12
61869,80039,2008/11/21 09:30:21,43.1389,4.9978,17.88,-0.004525,0.217056,00111100,1,25,12
61869,80039,2008/11/21 10:00:14,43.1419,4.9980,17.88,0.00905,0.186048,00111100,1,23,12
61869,80039,2008/11/21 10:31:39,43.1440,4.9974,17.8,-0.025825,0.123878,00111100,1,25,12
61869,80039,2008/11/21 11:00:12,43.1463,4.9985,17.88,0.052098,0.149299,00111100,1,25,12
61869,80039,2008/11/21 11:30:15,43.1478,4.9998,17.8,0.058495,0.092508,00111100,1,25,12
61869,80039,2008/11/21 12:30:13,43.1511,5.0027,17.8,0.065387,0.101985,00111100,1,25,12
61869,80039,2008/11/21 13:01:35,43.1527,5.0044,17.8,0.073277,0.094533,00111100,1,26,12
61869,80039,2008/11/21 13:30:14,43.1541,5.0064,17.8,0.09438,0.09056,00111100,1,26,12
61869,80039,2008/11/21 14:00:27,43.1556,5.0092,17.8,0.125278,0.091998,00111100,1,28,12
61869,80039,2008/11/21 14:31:33,43.1563,5.0125,17.8,0.143453,0.041713,00111100,1,26,12
61869,80039,2008/11/21 15:00:22,43.1572,5.0159,17.8,0.159509,0.057881,00111100,1,28,11.9
61869,80039,2008/11/21 15:30:21,43.1575,5.0198,17.8,0.175845,0.018543,00111100,1,30,11.9
61869,80039,2008/11/21 16:02:33,43.1583,5.0237,17.64,0.163738,0.046043,00111100,1,31,12
61869,80039,2008/11/21 16:30:27,43.1595,5.0275,17.56,0.184126,0.07971,00111100,1,31,12
61869,80039,2008/11/21 17:00:39,43.1606,5.0313,17.56,0.1701,0.067502,00111100,1,30,12
61869,80039,2008/11/21 17:31:39,43.1613,5.0346,17.56,0.143904,0.041848,00111100,1,31,12
61869,80039,2008/11/21 18:00:11,43.1616,5.0377,17.56,0.146868,0.019485,00111100,1,34,12
61869,80039,2008/11/21 19:00:21,43.1619,5.0443,17.56,0.148287,0.009241,00111100,1,31,11.9
61869,80039,2008/11/21 19:30:15,43.1622,5.0479,17.56,0.162759,0.018594,00111100,1,31,11.9
61869,80039,2008/11/21 20:00:00,43.1619,5.0459,17.56,-0.088605,-0.017442,00111100,1,30,12
61869,80039,2008/11/21 20:30:14,43.1619,5.0550,17.56,0.404647,-0.001226,00111100,1,25,12
61869,80039,2008/11/21 21:00:30,43.1617,5.0589,17.56,0.174186,-0.012246,00111100,1,30,12
61869,80039,2008/11/21 21:31:28,43.1613,5.0630,17.56,0.178981,-0.023939,00111100,1,28,12
61869,80039,2008/11/21 22:00:15,43.1605,5.0666,17.56,0.169076,-0.051509,00111100,1,28,11.9
61869,80039,2008/11/21 22:30:11,43.1593,5.0705,17.56,0.176132,-0.074295,00111100,1,25,11.9
61869,80039,2008/11/21 23:00:11,43.1582,5.0743,17.56,0.171237,-0.067952,00111100,1,31,12
61869,80039,2008/11/21 23:30:10,43.1570,5.0788,17.56,0.202898,-0.074171,00111100,1,30,12
61869,80039,2008/11/22 00:01:11,43.1556,5.0825,17.48,0.161272,-0.08365,00111100,1,31,12
61869,80039,2008/11/22 01:00:17,43.1533,5.0906,17.48,0.185295,-0.072123,00111100,1,28,11.9
61869,80039,2008/11/22 01:31:16,43.1515,5.0940,17.48,0.148365,-0.107666,00111100,1,31,11.9
61869,80039,2008/11/22 02:02:23,43.1501,5.0978,17.48,0.165114,-0.083381,00111100,1,31,12
61869,80039,2008/11/22 02:30:29,43.1486,5.1021,17.48,0.206902,-0.098928,00111100,1,31,12
61869,80039,2008/11/22 03:01:33,43.1467,5.1068,17.48,0.204559,-0.113342,00111100,1,34,12
61869,80039,2008/11/22 03:30:28,43.1451,5.1111,17.48,0.20107,-0.102543,00111100,1,30,12
61869,80039,2008/11/22 04:00:19,43.1437,5.1160,17.48,0.221968,-0.08692,00111100,1,33,12
61869,80039,2008/11/22 04:30:12,43.1421,5.1204,17.48,0.1991,-0.099226,00111100,1,33,12
61869,80039,2008/11/22 05:00:21,43.4041,5.3359,17.48,9.64454,16.1045,00144100,1,25,11.9
61869,80039,2008/11/22 05:30:21,43.2071,5.1788,17.48,-7.06227,-12.1697,00144100,1,28,11.9
61869,80039,2008/11/22 06:00:12,43.1366,5.1364,17.48,-1.91984,-4.37702,00144100,1,22,12
61869,80039,2008/11/22 06:30:58,43.1353,5.1430,17.48,0.290109,-0.078306,00111100,4,25,12
61869,80039,2008/11/22 07:00:23,43.1339,5.1494,17.48,0.294235,-0.0882,00111100,4,26,12
61869,80039,2008/11/22 07:31:37,43.1321,5.1567,17.48,0.316099,-0.106804,00111100,1,28,12
61869,80039,2008/11/22 08:00:11,43.1296,5.1631,17.48,0.303008,-0.162186,00111100,1,25,12
61869,80039,2008/11/22 08:30:11,43.1279,5.1692,17.48,0.275016,-0.105017,00111100,1,26,12
61869,80039,2008/11/22 09:00:10,43.1254,5.1768,17.48,0.342845,-0.154523,00111100,1,26,12
61869,80039,2008/11/22 11:00:15,43.1171,5.2073,17.48,0.343573,-0.128094,00111100,3,31,12
61869,80039,2008/11/22 11:30:19,43.1144,5.2154,17.48,0.364453,-0.166423,00111100,3,31,12
61869,80039,2008/11/22 12:00:15,43.1113,5.2231,17.48,0.348015,-0.191929,00111100,1,30,11.9
61869,80039,2008/11/22 12:33:57,43.1077,5.2323,17.48,0.369355,-0.197973,00111100,1,36,11.7
61869,80039,2008/11/22 13:00:15,43.1053,5.2393,17.48,0.360122,-0.169118,00111100,1,31,11.7
61869,80039,2008/11/22 13:30:33,43.1021,5.2479,17.48,0.384046,-0.195723,00111100,1,38,11.7
61869,80039,2008/11/22 14:00:13,43.0985,5.2573,17.48,0.428756,-0.224889,00111100,3,28,11.9
61869,80039,2008/11/22 14:30:21,43.0943,5.2655,17.4,0.368252,-0.258307,00111100,3,36,11.9
61869,80039,2008/11/22 15:00:21,43.0898,5.2741,17.4,0.38796,-0.277987,00111100,3,30,12
61869,80039,2008/11/22 15:32:09,43.0841,5.2834,17.4,0.395823,-0.332186,00111100,1,33,12
61869,80039,2008/11/22 16:00:17,43.0792,5.2911,17.4,0.37047,-0.322781,00111100,1,34,11.9
61869,80039,2008/11/22 16:32:09,43.0735,5.2996,17.4,0.36108,-0.331491,00111100,1,31,11.9
61869,80039,2008/11/22 17:00:25,43.0688,5.3073,17.32,0.368785,-0.308146,00111100,4,30,11.9
61869,80039,2008/11/22 17:30:17,43.0635,5.3148,17.32,0.339991,-0.328869,00111100,4,28,11.9
61869,80039,2008/11/22 18:00:56,43.0582,5.3219,17.32,0.31366,-0.320464,00111100,1,30,12
61869,80039,2008/11/22 18:30:15,43.0529,5.3273,17.24,0.249429,-0.335039,00111100,1,25,12
61869,80039,2008/11/22 19:00:33,43.0476,5.3331,17.24,0.259233,-0.324166,00111100,1,26,11.9
61869,80039,2008/11/22 19:30:14,43.0429,5.3378,17.24,0.21445,-0.29344,00111100,1,30,11.9
61869,80039,2008/11/22 21:00:12,43.0323,5.3501,17.24,0.185191,-0.218352,00111100,1,26,11.8
61869,80039,2008/11/22 21:31:11,43.0291,5.3535,17.16,0.14866,-0.191406,00111100,1,30,11.8
61869,80039,2008/11/22 22:00:16,43.0260,5.3561,17.16,0.121114,-0.197538,00111100,1,30,11.9
61869,80039,2008/11/22 22:30:00,43.0465,5.3544,17.16,-0.07517,1.27774,00144100,1,30,11.7
61869,80039,2008/11/22 23:02:01,43.0224,5.3613,17.16,0.289822,-1.395,00144100,1,28,11.7
61869,80039,2008/11/22 23:30:35,43.0210,5.3630,17.08,0.08063,-0.090824,00111100,1,30,11.7
61869,80039,2008/11/23 00:00:15,43.0192,5.3654,17.08,0.109613,-0.112444,00111100,1,25,11.9
61869,80039,2008/11/23 00:30:17,43.0187,5.3688,17.08,0.153392,-0.030853,00111100,1,30,11.9
61869,80039,2008/11/23 01:03:10,43.0183,5.3722,17,0.140098,-0.022543,00111100,1,22,12
61869,80039,2008/11/23 01:30:10,43.0195,5.3763,16.92,0.205754,0.082367,00111100,3,26,12
61869,80039,2008/11/23 02:00:22,43.0204,5.3805,16.92,0.188435,0.055229,00111100,3,33,11.9
61869,80039,2008/11/23 02:30:16,43.0210,5.3849,16.84,0.199387,0.037189,00111100,1,34,11.9
61869,80039,2008/11/23 03:02:10,43.0247,5.3861,16.84,0.050967,0.214954,00111100,1,26,11.9
61869,80039,2008/11/23 03:30:15,43.0219,5.3957,16.84,0.463147,-0.184775,00111100,1,34,11.9
61869,80039,2008/11/23 04:00:08,43.0673,5.3870,16.76,-0.394308,2.81553,00144100,1,30,11.9
61869,80039,2008/11/23 04:30:22,43.1049,5.4127,16.76,1.15053,2.30481,00144100,3,26,11.9
61869,80039,2008/11/23 05:00:18,43.0990,5.5276,16.76,5.19403,-0.365284,00144100,3,28,11.9
61869,80039,2008/11/23 05:32:38,43.0253,5.3882,16.76,-5.83759,-4.22426,00144100,1,33,11.9
61869,80039,2008/11/23 06:00:12,42.9218,5.6476,16.76,12.7595,-6.95809,00144100,3,30,11.9
61869,80039,2008/11/23 06:30:12,42.9450,5.6987,16.68,2.31116,1.43318,00144100,3,33,11.9
61869,80039,2008/11/23 07:01:20,42.8849,5.6723,16.68,-1.15091,-3.57752,00144100,3,31,11.9
61869,80039,2008/11/23 07:31:40,42.9537,5.4263,16.68,-11.0064,4.20341,00144100,1,31,11.9
61869,80039,2008/11/23 08:00:28,42.9576,5.4453,16.68,0.89482,0.250961,00111100,1,31,11.9
61869,80039,2008/11/23 08:31:40,42.9940,5.4647,16.68,0.8431,2.16212,00144100,1,28,11.9
61869,80039,2008/11/23 09:00:16,42.9891,5.4684,16.68,0.175371,-0.317515,00111100,1,34,11.9
61869,80039,2008/11/23 09:30:31,42.9836,5.4715,16.68,0.138929,-0.336954,00111100,1,28,11.9
61869,80039,2008/11/23 10:00:17,42.9786,5.4722,16.68,0.031883,-0.311296,00111100,1,23,11.9
61869,80039,2008/11/23 10:32:40,42.9742,5.4727,16.6,0.020935,-0.251805,00111100,1,28,11.9
61869,80039,2008/11/23 11:00:12,42.9700,5.4720,16.6,-0.034474,-0.282699,00111100,1,25,11.9
61869,80039,2008/11/23 11:30:15,42.9652,5.4702,16.6,-0.08123,-0.296026,00111100,1,23,11.9
61869,80039,2008/11/23 12:00:10,42.9603,5.4676,16.52,-0.117865,-0.30354,00111100,1,23,11.9
61869,80039,2008/11/23 12:30:33,42.9560,5.4643,16.52,-0.147311,-0.262281,00111100,1,25,11.9
61869,80039,2008/11/23 13:01:57,42.9529,5.4599,16.52,-0.190067,-0.182964,00111100,1,25,11.9
61869,80039,2008/11/23 13:30:40,42.9503,5.4549,16.52,-0.236178,-0.167793,00111100,4,28,11.9
61869,80039,2008/11/23 14:00:24,42.9469,5.4499,16.52,-0.228113,-0.211919,00111100,4,26,11.9
61869,80039,2008/11/23 14:31:04,42.9438,5.4447,16.52,-0.23003,-0.187339,00111100,1,23,11.9
61869,80039,2008/11/23 15:00:09,42.9421,5.4393,16.52,-0.251892,-0.108327,00111100,1,20,11.9
61869,80039,2008/11/23 15:30:06,42.9407,5.4338,16.52,-0.249138,-0.086629,00111100,1,17,11.9
61869,80039,2008/11/23 16:00:16,42.9401,5.4286,16.52,-0.233861,-0.03686,00111100,1,17,11.9
61869,80039,2008/11/23 16:30:27,42.9398,5.4247,16.52,-0.1753,-0.01842,00111100,1,15,11.9
61869,80039,2008/11/23 17:00:23,42.9398,5.4221,16.44,-0.117843,0,00111100,1,17,11.9
61869,80039,2008/11/23 17:30:25,42.9404,5.4194,16.52,-0.121968,0.037024,00111100,1,15,11.9
61869,80039,2008/11/23 18:01:10,42.9410,5.4173,16.44,-0.092652,0.036161,00111100,1,12,11.9
61869,80039,2008/11/23 18:30:23,42.9420,5.4157,16.44,-0.074296,0.063431,00111100,1,12,11.9
61869,80039,2008/11/23 19:00:16,42.9430,5.4151,16.44,-0.027239,0.062016,00111100,1,7,11.9
61869,80039,2008/11/23 19:30:16,42.9433,5.4156,16.44,0.022611,0.018532,00111100,1,4,11.9
61869,80039,2008/11/23 20:00:16,42.9437,5.4159,16.44,0.013566,0.02471,00111100,1,3,11.9
61869,80039,2008/11/23 20:30:13,42.9448,5.4167,16.36,0.036237,0.068066,00111100,1,1,11.9
61869,80039,2008/11/23 21:00:40,42.9463,5.4179,16.44,0.053461,0.091293,00111100,1,1,11.9
61869,80039,2008/11/23 21:30:17,42.9474,5.4206,16.44,0.12367,0.068832,00111100,1,3,11.9
61869,80039,2008/11/23 22:00:16,42.9473,5.4235,16.44,0.131205,-0.006181,00111100,1,4,11.9
61869,80039,2008/11/23 22:30:10,42.9460,5.4273,16.44,0.172405,-0.080576,00111100,1,9,11.9
61869,80039,2008/11/23 23:00:16,42.9405,5.4252,16.44,-0.093747,-0.341096,00111100,1,14,11.9
61869,80039,2008/11/23 23:30:28,42.9416,5.4353,16.44,0.452826,0.069957,00111100,4,19,11.9
61869,80039,2008/11/24 00:00:40,42.9388,5.4388,16.44,0.157233,-0.171824,00111100,4,26,11.9
61869,80039,2008/11/24 00:31:36,42.9348,5.4419,16.44,0.13597,-0.239644,00111100,1,25,11.9
61869,80039,2008/11/24 01:00:18,42.9299,5.4436,16.44,0.080372,-0.316408,00111100,1,26,11.9
61869,80039,2008/11/24 01:31:39,42.9243,5.4448,16.44,0.051942,-0.331043,00111100,1,31,11.9
61869,80039,2008/11/24 02:00:22,42.9196,5.4477,16.44,0.137049,-0.303318,00111100,1,34,11.9
61869,80039,2008/11/24 02:30:14,42.9149,5.4490,16.44,0.059075,-0.291638,00111100,3,26,11.9
61869,80039,2008/11/24 03:00:11,42.9098,5.4502,16.44,0.054383,-0.315578,00111100,3,28,11.9
61869,80039,2008/11/24 03:30:11,42.9045,5.4501,16.36,-0.004525,-0.327407,00111100,3,26,11.9
61869,80039,2008/11/24 04:00:08,42.8985,5.4493,16.36,-0.036262,-0.371269,00111100,3,28,11.9
61869,80039,2008/11/24 04:33:02,42.8910,5.4480,16.36,-0.053648,-0.422473,00111100,1,25,11.9
61869,80039,2008/11/24 05:00:16,42.8853,5.4464,16.36,-0.079775,-0.387889,00111100,1,25,11.9
61869,80039,2008/11/24 05:30:16,42.8783,5.4430,16.36,-0.153905,-0.432425,00111100,3,30,11.9
61869,80039,2008/11/24 06:00:16,42.8719,5.4395,16.36,-0.158449,-0.39536,00111100,3,23,11.9
61869,80039,2008/11/24 06:30:28,42.8652,5.4344,16.36,-0.229378,-0.411151,00111100,1,25,11.9
61869,80039,2008/11/24 07:01:05,42.8593,5.4269,16.28,-0.332764,-0.357131,00111100,1,20,11.9
61869,80039,2008/11/24 07:30:22,42.8538,5.4200,16.28,-0.320111,-0.348077,00111100,1,31,11.9
61869,80039,2008/11/24 08:00:16,42.8481,5.4120,16.2,-0.363522,-0.353295,00111100,1,22,11.9
61869,80039,2008/11/24 08:30:34,42.8437,5.4036,16.2,-0.37669,-0.269119,00111100,1,23,11.9
61869,80039,2008/11/24 09:00:29,42.8395,5.3950,16.2,-0.390628,-0.260178,00111100,1,23,11.9
61869,80039,2008/11/24 09:32:40,42.8350,5.3844,16.12,-0.447593,-0.259129,00111100,3,22,11.9
61869,80039,2008/11/24 10:00:13,42.8319,5.3750,16.12,-0.463704,-0.208533,00111100,3,26,11.8
61869,80039,2008/11/24 10:31:11,42.8300,5.3649,16.12,-0.443281,-0.113708,00111100,1,22,11.8
61869,80039,2008/11/24 11:00:22,42.8290,5.3572,16.12,-0.358607,-0.063504,00111100,1,20,11.9
61869,80039,2008/11/24 11:30:16,42.8286,5.3503,16.04,-0.31365,-0.024793,00111100,1,20,11.9
61869,80039,2008/11/24 12:00:19,42.8281,5.3438,16.04,-0.293995,-0.030836,00111100,1,17,11.9
61869,80039,2008/11/24 12:31:55,42.8288,5.3381,16.12,-0.245165,0.041053,00111100,1,17,11.9
61869,80039,2008/11/24 13:00:16,42.8293,5.3330,16.12,-0.244502,0.032685,00111100,1,19,11.9
61869,80039,2008/11/24 13:30:10,42.8304,5.3275,16.04,-0.250007,0.06818,00111100,1,17,11.9
61869,80039,2008/11/24 14:00:22,42.8316,5.3229,16.04,-0.207016,0.073639,00111100,1,17,11.9